HK6REC-22 Weather Reports


Display with metric or nautical units.
time (UTC)temp
F
wind
direction
speed
MPH
gust
MPH
rain 1hr
in
rain 24hr
in
rain mn
in
humidity
%
barometer
mb
20260507190627 86 210 4.0 4.0 0.00 0.00 0.00 66 1010.0
20260507183626 86 210 4.0 4.0 0.00 0.00 0.00 62 1009.0
20260507180625 83 199 3.0 4.0 0.00 0.00 0.00 64 1010.0
20260507173624 83 195 3.0 4.0 0.00 0.00 0.00 64 1011.0
20260507170623 79 183 2.0 3.0 0.00 0.00 0.00 72 1013.0
20260507163622 81 183 2.0 3.0 0.00 0.00 0.00 70 1013.0
20260507160621 77 169 1.0 1.0 0.00 0.00 0.00 78 1014.0
20260507153620 74 169 1.0 1.0 0.00 0.00 0.00 75 1014.0
20260507150619 75 138 1.0 1.0 0.00 0.00 0.00 78 1016.0
20260507143617 71 138 1.0 1.0 0.00 0.00 0.00 80 1015.0
20260507140616 69 119 1.0 0.0 0.00 0.00 0.00 79 1016.0
20260507133615 69 119 1.0 0.0 0.00 0.00 0.00 84 1016.0
20260507130614 69 123 1.0 1.0 0.00 0.00 0.00 81 1016.0
20260507123613 62 123 1.0 1.0 0.00 0.00 0.00 88 1015.0
20260507120612 62 84 1.0 1.0 0.00 0.00 0.00 88 1015.0
20260507113611 62 49 2.0 3.0 0.00 0.00 0.00 88 1015.0
20260507110610 62 56 1.0 2.0 0.00 0.00 0.00 82 1016.0
20260507103609 62 56 1.0 2.0 0.00 0.00 0.00 88 1015.0
20260507100608 62 79 1.0 1.0 0.00 0.00 0.00 82 1016.0
20260507093607 62 79 1.0 1.0 0.00 0.00 0.00 88 1014.0
20260507090606 63 58 1.0 1.0 0.00 0.00 0.00 81 1015.0
20260507083605 63 58 1.0 1.0 0.00 0.00 0.00 88 1014.0
20260507080604 63 30 1.0 1.0 0.00 0.00 0.00 83 1015.0
20260507073603 63 30 1.0 1.0 0.00 0.00 0.00 88 1014.0
20260507070602 63 10 1.0 1.0 0.00 0.00 0.00 83 1015.0
20260507063601 63 10 1.0 1.0 0.00 0.00 0.00 88 1014.0
20260507060600 63 337 1.0 1.0 0.00 0.00 0.00 89 1015.0
20260507053559 63 332 1.0 1.0 0.00 0.00 0.00 88 1015.0
20260507050558 63 333 1.0 1.0 0.00 0.00 0.00 82 1016.0
20260507043557 63 333 1.0 1.0 0.00 0.00 0.00 88 1016.0
20260507040556 64 310 1.0 1.0 0.00 0.00 0.00 81 1016.0
20260507033555 64 310 1.0 1.0 0.00 0.00 0.00 87 1015.0
20260507030553 65 296 2.0 2.0 0.00 0.00 0.00 82 1016.0
20260507023552 65 296 2.0 2.0 0.00 0.00 0.00 87 1015.0
20260507020551 66 293 3.0 3.0 0.00 0.00 0.00 81 1015.0
20260507013550 66 293 3.0 3.0 0.00 0.00 0.00 87 1014.0
20260507010549 67 295 4.0 4.0 0.00 0.00 0.00 80 1014.0
20260507003548 68 295 4.0 4.0 0.00 0.00 0.00 85 1013.0
20260507000547 71 259 3.0 5.0 0.00 0.00 0.00 79 1013.0
20260506233546 74 259 3.0 5.0 0.00 0.00 0.00 85 1012.0
20260506230545 75 282 4.0 4.0 0.00 0.00 0.00 77 1011.0
20260506223544 75 282 4.0 4.0 0.00 0.00 0.00 82 1010.0
20260506220543 76 285 4.0 4.0 0.00 0.00 0.00 76 1010.0
20260506213542 76 285 4.0 4.0 0.00 0.00 0.00 79 1009.0
20260506210541 77 275 5.0 7.0 0.00 0.00 0.00 75 1009.0
20260506203540 78 275 5.0 7.0 0.00 0.00 0.00 77 1009.0
20260506200539 78 243 5.0 5.0 0.00 0.00 0.00 72 1009.0
20260506193538 88 243 5.0 5.0 0.00 0.00 0.00 71 1009.0